Regional Weather Roundup
Issued by NWS

Home | Current Version | Previous Version | Graphics & Text | Print | Product List | Glossary On
Versions: 1 2 3 4 5 6 7 8 9 10 11 12 13 14 15 16 17 18 19 20 21 22 23 24 25 26 27 28 29 30 31 32 33 34 35 36 37 38 39 40 41 42 43 44 45 46 47 48 49 50
000
ASUS45 KABQ 240610
RWRNM
NEW MEXICO REGIONAL WEATHER ROUNDUP
NATIONAL WEATHER SERVICE ALBUQUERQUE NM
1200 AM MDT MON APR 24 2017

NOTE: "FAIR" MEANS FEW OR NO CLOUDS BELOW 12,000 FEET AGL WITH NO
       SIGNIFICANT WEATHER OR OBSTRUCTIONS TO VISION.

      THIS PRODUCT IS RELEASED AS TWO VERSIONS.  ONE VERSION NEAR
      THE TOP OF THE HOUR CONTAINING PRELIMINARY DATA FROM ALBUQUERQUE
      AND OTHER STATIONS.  A FINAL VERSION WITH ADDITIONAL DATA IS
      ISSUED ABOUT 10 MINUTES AFTER THE HOUR.

NMZ501-503-504-510>518-240700-
NORTHWEST PLATEAU/NORTHCENTRAL MOUNTAINS

CITY           SKY/WX    TMP DP  RH WIND       PRES   REMARKS
FARMINGTON     FAIR      60  32  34 W9        29.84R
6HR MIN TEMP:  60; 6HR MAX TEMP:  74;

LOS ALAMOS     FAIR      56  26  31 S12       29.97F
SANTA FE       FAIR      53  30  41 E7        29.94S
6HR MIN TEMP:  52; 6HR MAX TEMP:  73;

TAOS             N/A     55  27  33 SW15      29.95S
ANGEL FIRE     FAIR      42  29  60 CALM      30.01S

$$
NMZ402-403-502-505>509-240700-
WESTCENTRAL MOUNTAINS/SOUTHWEST MOUNTAINS

CITY           SKY/WX    TMP DP  RH WIND       PRES   REMARKS
GALLUP         FAIR      56  15  20 SW10      29.95F
6HR MIN TEMP:  54; 6HR MAX TEMP:  72;

GRANTS         FAIR      62  14  15 SW12G18   29.96F
SILVER CITY    FAIR      49  32  52 N10       29.98S

$$
NMZ407-409-411-412-240700-
SOUTHERN DESERTS

CITY           SKY/WX    TMP DP  RH WIND       PRES   REMARKS
DEMING         FAIR      60  29  30 N6        29.90F
6HR MIN TEMP:  60; 6HR MAX TEMP:  81;

LAS CRUCES     FAIR      67  32  26 S8        29.92F
HOLLOMAN AFB   FAIR      67  30  25 S13       29.93S
ALAMOGORDO     FAIR      63  32  31 S14       29.91S
T OR C         FAIR      69  29  22 SW12      29.92S
6HR MIN TEMP:  66; 6HR MAX TEMP:  79;


$$
NMZ519>523-240700-
CENTRAL VALLEYS/CENTRAL HIGHLANDS

CITY           SKY/WX    TMP DP  RH WIND       PRES   REMARKS
ALBUQUERQUE    MOCLDY    62  29  28 S12       29.92S
6HR MIN TEMP:  62; 6HR MAX TEMP:  76;

MORIARTY ARPT  FAIR      52  31  43 S9        29.98S
6HR MIN TEMP:  51; 6HR MAX TEMP:  74;

CLINES CORNERS FAIR      52  27  38 SW20      30.00S
6HR MIN TEMP:  51; 6HR MAX TEMP:  68;

BELEN          FAIR      59  29  32 SW10      29.92S
6HR MIN TEMP:  58; 6HR MAX TEMP:  76;

SOCORRO        FAIR      64  29  27 SW10      29.93R
6HR MIN TEMP:  61; 6HR MAX TEMP:  76;


$$
NMZ524>526-539-540-240700-
SOUTHCENTRAL MOUNTAINS

CITY           SKY/WX    TMP DP  RH WIND       PRES   REMARKS
RUIDOSO        FAIR      55  25  30 S12       30.05F

$$
NMZ527>531-240700-
NORTHEAST HIGHLANDS/NORTHEAST PLAINS

CITY           SKY/WX    TMP DP  RH WIND       PRES   REMARKS
LAS VEGAS      FAIR      46  30  53 S13       29.96S
6HR MIN TEMP:  46; 6HR MAX TEMP:  71;

RATON          FAIR      49  32  52 S9        29.87F
6HR MIN TEMP:  49; 6HR MAX TEMP:  75;

CLAYTON        FAIR      55  34  45 SW12      29.85S
6HR MIN TEMP:  54; 6HR MAX TEMP:  71;


$$
NMZ532>537-240700-
EASTCENTRAL PLAINS

CITY           SKY/WX    TMP DP  RH WIND       PRES   REMARKS
SANTA ROSA     FAIR      56  30  37 S16G22    29.90R
TUCUMCARI      FAIR      61  33  35 S23G32    29.85S
6HR MIN TEMP:  61; 6HR MAX TEMP:  76;

CANNON AFB     FAIR      51  35  56 S9        29.93F
6HR MIN TEMP:  50; 6HR MAX TEMP:  73;

CLOVIS AIRPORT FAIR      52  34  50 S15G21    29.93F

$$
NMZ028-029-538-240700-
SOUTHEAST PLAINS

CITY           SKY/WX    TMP DP  RH WIND       PRES   REMARKS
ROSWELL        FAIR      58  30  34 S15         N/A
6HR MIN TEMP:  58; 6HR MAX TEMP:  74;

ARTESIA        FAIR      59  32  36 S16       29.93S
CARLSBAD       FAIR      59  31  34 S13       29.93F
6HR MIN TEMP:  59; 6HR MAX TEMP:  74;

HOBBS          FAIR      54  32  43 SE8       29.98F


$$




USA.gov is the U.S. government's official web portal to all federal, state and local government web resources and services.